Tracking 20241 objects as of 28-Jan-2020
HD Live streaming from Space Station
objects crossing your sky now

NARSSCUBE-1

Track NARSSCUBE-1 now!
10-day predictions


NORAD ID: 44792
Int'l Code: 1998-067QV
Perigee: 416.1 km
Apogee: 423.6 km
Inclination: 51.6 °
Period: 92.8 minutes
Semi major axis: 6790 km
RCS: Unknown
Launch date: November 20, 1998
Source: Egypt (EGYP)
Launch site: TYURATAM MISSILE AND SPACE COMPLEX (TTMTR)
aabbcc
Your satellite tracking list
Your tracking list is empty




NASA's NSSDC Master Catalog

Two Line Element Set (TLE):
1 44792U 98067QV  20027.89177834 +.00005642 +00000-0 +10178-3 0  9991
2 44792 051.6426 327.0040 0005539 197.7259 162.3538 15.51377733010641
Source of the keplerian elements: AFSPC